Regional Weather Roundup
Issued by NWS Mt. Holly, NJ

Home | Current Version | Previous Version | Text Only | Print | Product List | Glossary On
Versions: 1 2 3 4 5 6 7 8 9 10 11 12 13 14 15 16 17 18 19 20 21 22 23 24 25 26 27 28 29 30 31 32 33 34 35 36 37 38 39 40 41 42 43 44 45 46 47 48 49 50
000
ASUS41 KPHI 261310
RWRPHI

REGIONAL WEATHER ROUNDUP
NATIONAL WEATHER SERVICE MOUNT HOLLY NJ
800 AM EST MON JAN 26 2015

NOTE:  "FAIR" INDICATES FEW OR NO CLOUDS BELOW 12,000 FEET WITH NO
SIGNIFICANT WEATHER AND/OR OBSTRUCTIONS TO VISIBILITY.

 * = STATION DOES NOT REPORT PRECIPITATION (E.G. RAIN, SNOW, ETC.)
        OR FOG.

NJZ015>026-261400-
SOUTHERN NEW JERSEY

CITY           SKY/WX    TMP DP  RH WIND       PRES   REMARKS
POMONA         LGT SNOW  33  29  85 NE14G25   29.89S FOG     WCI  23
RIO GRANDE*    CLOUDY    36  28  75 NE17G30   29.84S WCI  25
MILLVILLE      LGT SNOW  31  28  89 NE10G20   29.88S FOG     WCI  22
WRIGHTSTOWN    LGT SNOW  27  24  88 NE14G22   29.91S FOG     WCI  15
MOUNT HOLLY    LGT SNOW  26  22  84 NE9       29.94S FOG     WCI  17
TRENTON        CLOUDY    24  16  71 NE13      29.94S WCI  12

$$
NJZ001>014-261400-
NORTHERN NEW JERSEY

CITY           SKY/WX    TMP DP  RH WIND       PRES   REMARKS
SUSSEX         FLURRIES  14   6  70 NE9       29.99S WCI   2
ANDOVER*         N/A     15  10  80 VRB7      29.97S WCI   5
MORRISTOWN     LGT SNOW  19  14  79 NE7       30.00F WCI  10
NEWARK         FLURRIES  24  16  71 NE14G21   30.00F WCI  12
TETERBORO      LGT SNOW  21  12  68 NE8       30.01S WCI  12
CALDWELL       LGT SNOW  19  12  74 NE10      30.01S WCI   7
SOMERVILLE     LGT SNOW  20  14  77 NE8       29.97S WCI  10
ALLAIRE*       CLOUDY    27  19  74 NE12G23   29.95S WCI  16
TOMS RIVER*    CLOUDY    28  27  93 NE13      29.94F WCI  18

$$
PAZ043-044-047-054-055-060>062-066>071-261400-
EASTERN PENNSYLVANIA

CITY           SKY/WX    TMP DP  RH WIND       PRES   REMARKS
PHILADELPHIA   LGT SNOW  28  21  75 NE14G22   29.94R WCI  17
NORTH PHILA    LGT SNOW  27  19  72 E12       29.96R WCI  17
BLUE BELL      CLOUDY    27  21  80 E10       29.92S WCI  17
DOYLESTOWN     CLOUDY    20  16  84 NE7       29.93R WCI  11
POTTSTOWN      CLOUDY    21  16  81 NE12      29.94R WCI   9
LANCASTER      CLOUDY    24  19  81 E18       29.87R WCI  10
COATESVILLE    LGT SNOW  25  23  93 E13G28    29.87R WCI  13
READING        CLOUDY    24  17  74 E14G20    29.91R WCI  12
ALLENTOWN      CLOUDY    19  13  77 NE13      29.95R WCI   6
MOUNT POCONO   LGT SNOW  12   7  80 E12       29.83S WCI  -2
HAZLETON       CLOUDY    19  14  79 E8G16     29.84S WCI   9
WILKES BARRE   CLOUDY    19  10  68 VRB6G17   29.89S WCI  11

$$
DEZALL-MDZ008-012-015-019-020-261400-
DELAWARE AND EASTERN MARYLAND

CITY           SKY/WX    TMP DP  RH WIND       PRES   REMARKS
WILMINGTON     LGT SNOW  29  24  82 E16G28    29.90R WCI  17
DOVER          FLURRIES  32  32 100 NE16      29.86S WCI  21
GEORGETOWN     LGT RAIN  37  32  82 NE15G28   29.83F WCI  28
EASTON         LGT SNOW  36  36 100 E12G21    29.86F WCI  27
PATUXENT       CLOUDY    38  34  85 E17       29.78F WCI  28
OCEAN CITY     CLOUDY    42  37  82 NE13G21   29.80F
WALLOPS ISLAND CLOUDY    42  38  85 NE18G28   29.76F
CAMBRIDGE      CLOUDY    37  34  87 NE9       29.80F WCI  31
SALISBURY      LGT RAIN  42  35  76 NE15      29.78F

$$
PAZ001-021-NYZ056-072-MDZ011-DCZ001-261400-
OTHER NEARBY LOCATIONS

CITY           SKY/WX    TMP DP  RH WIND       PRES   REMARKS
HARRISBURG     LGT SNOW  24  19  81 E6        29.88R WCI  17
STATE COLLEGE  LGT SNOW  16  12  86 NE8       29.81F VSB 1   WCI   5
WILLIAMSPORT   LGT SNOW  18  13  80 N3        29.90F
BINGHAMTON     LGT SNOW   7   3  84 NE8       29.86S VSB 1   WCI  -6
NEW YORK CITY  CLOUDY    25  14  63 E13G23    30.02S HAZE    WCI  14
BALTIMORE      LGT SNOW  30  28  93 E15       29.83S VSB 3/4 WCI  19
WASHINGTON DC  LGT SNOW  37  31  78 NE13      29.82R WCI  29

$$



USA.gov is the U.S. government's official web portal to all federal, state and local government web resources and services.